Weather History for KMXO - February, 2014

Change the Weather History Date:

Friday, February 14, 2014

  Actual Average Record
Temperature  
Mean Temperature 8 °F -  
Max Temperature 15 °F 33 °F 60 °F (2006)
Min Temperature 0 °F 18 °F 0 °F (2007)
Degree Days  
Heating Degree Days 58    
Moisture  
Dew Point 3 °F    
Average Humidity 73    
Maximum Humidity 85    
Minimum Humidity 62    
Precipitation  
Precipitation 0.00 in - - ()
Sea Level Pressure  
Sea Level Pressure 29.85 in    
Wind  
Wind Speed 10 mph (NW)    
Max Wind Speed 16 mph    
Max Gust Speed 23 mph    
Visibility 10 miles    
Events Snow    
Averages and records for this station are not official NWS values.
T = Trace of Precipitation, MM = Missing Value Source: NWS Daily Summary

Daily Weather History Graph

Daily Weather History Graph

Search for Another Location

Airport or City:

Trip Planner

Search our weather history database for the weather conditions in past years. The results will help you decide how hot, cold, wet, or windy it might be!

Date:

Astronomy

Feb. 14, 2014 Rise Set
Actual Time 7:02 AM CST 5:36 PM CST
Civil Twilight 6:33 AM CST 6:04 PM CST
Nautical Twilight 6:00 AM CST 6:37 PM CST
Astronomical Twilight 5:28 AM CST 7:10 PM CST
Moon 5:41 PM CST (2/14) 6:28 AM CST (2/14)
Length of Visible Light 11h 31m
Length of Day
10h 33m
Full, 100% of the Moon is Illuminated
Feb 14
Full
Feb 14
Full
Feb 22
Last Quarter
Mar 1
New
Mar 8
First Quarter

Hourly Weather History & Observations

Time (CST) Temp. Windchill Dew Point Humidity Pressure Visibility Wind Dir Wind Speed Gust Speed Precip Events Conditions
12:15 AM 8.6 °F -6.3 °F 3.2 °F 79% 29.71 in 10.0 mi WNW 11.5 mph - N/A   Clear
12:35 AM 8.6 °F -4.7 °F 1.4 °F 73% 29.72 in 10.0 mi WNW 9.2 mph - N/A   Partly Cloudy
12:55 AM 6.8 °F -4.8 °F 1.4 °F 79% 29.72 in 10.0 mi WNW 6.9 mph - N/A   Partly Cloudy
1:15 AM 6.8 °F -5.9 °F 1.4 °F 79% 29.72 in 10.0 mi WNW 8.1 mph - N/A   Clear
1:35 AM 6.8 °F -7.8 °F 1.4 °F 79% 29.74 in 10.0 mi WNW 10.4 mph - N/A   Clear
1:55 AM 6.8 °F -3.5 °F 1.4 °F 79% 29.72 in 10.0 mi WNW 5.8 mph - N/A   Clear
2:15 AM 5.0 °F -4.1 °F 1.4 °F 85% 29.70 in 9.0 mi North 4.6 mph - N/A   Clear
2:35 AM 5.0 °F -6.9 °F -0.4 °F 78% 29.70 in 10.0 mi NW 6.9 mph - N/A   Clear
2:55 AM 5.0 °F -6.9 °F -0.4 °F 78% 29.71 in 10.0 mi NW 6.9 mph - N/A   Scattered Clouds
3:15 AM 6.8 °F -3.5 °F 1.4 °F 79% 29.71 in 10.0 mi NNW 5.8 mph - N/A   Overcast
3:35 AM 6.8 °F -0.1 °F 1.4 °F 79% 29.70 in 10.0 mi NW 3.5 mph - N/A   Overcast
3:55 AM 6.8 °F -2.0 °F 1.4 °F 79% 29.69 in 10.0 mi NNW 4.6 mph - N/A   Overcast
4:15 AM 6.8 °F -2.0 °F 1.4 °F 79% 29.69 in 10.0 mi North 4.6 mph - N/A   Overcast
4:35 AM 8.6 °F 0.1 °F 1.4 °F 73% 29.71 in 10.0 mi NW 4.6 mph - N/A   Overcast
4:55 AM 8.6 °F 0.1 °F 1.4 °F 73% 29.71 in 10.0 mi WNW 4.6 mph - N/A   Overcast
5:20 AM 8.6 °F -2.6 °F 3.2 °F 79% 29.73 in 10.0 mi West 6.9 mph - N/A   Overcast
5:35 AM 8.6 °F -2.6 °F 3.2 °F 79% 29.74 in 10.0 mi West 6.9 mph - N/A   Overcast
5:55 AM 8.6 °F -4.7 °F 3.2 °F 79% 29.76 in 10.0 mi West 9.2 mph - N/A   Mostly Cloudy
6:15 AM 10.4 °F -2.4 °F 3.2 °F 73% 29.77 in 10.0 mi WNW 9.2 mph - N/A   Overcast
6:35 AM 10.4 °F -2.4 °F 3.2 °F 73% 29.76 in 9.0 mi NW 9.2 mph - N/A Snow Light Snow
6:55 AM 10.4 °F -3.3 °F 3.2 °F 73% 29.76 in 10.0 mi NW 10.4 mph - N/A   Mostly Cloudy
7:15 AM 10.4 °F -2.4 °F 3.2 °F 73% 29.78 in 10.0 mi NW 9.2 mph - N/A   Overcast
7:35 AM 10.4 °F 0.8 °F 5.0 °F 79% 29.77 in 10.0 mi NW 5.8 mph - N/A   Overcast
7:55 AM 10.4 °F -1.5 °F 3.2 °F 73% 29.78 in 10.0 mi NW 8.1 mph - N/A   Mostly Cloudy
8:15 AM 10.4 °F -1.5 °F 5.0 °F 79% 29.79 in 10.0 mi NNW 8.1 mph - N/A   Partly Cloudy
8:35 AM 12.2 °F -1.8 °F 5.0 °F 73% 29.79 in 10.0 mi NNW 11.5 mph - N/A   Mostly Cloudy
8:55 AM 12.2 °F -2.5 °F 5.0 °F 73% 29.79 in 10.0 mi NNW 12.7 mph - N/A   Mostly Cloudy
9:15 AM 12.2 °F -3.1 °F 5.0 °F 73% 29.80 in 10.0 mi NNW 13.8 mph 20.7 mph N/A   Partly Cloudy
9:35 AM 12.2 °F -2.5 °F 5.0 °F 73% 29.80 in 10.0 mi NNW 12.7 mph - N/A   Clear
9:55 AM 12.2 °F -1.0 °F 5.0 °F 73% 29.82 in 10.0 mi NNW 10.4 mph - N/A   Mostly Cloudy
10:15 AM 12.2 °F -2.5 °F 5.0 °F 73% 29.82 in 10.0 mi NNW 12.7 mph - N/A   Mostly Cloudy
10:35 AM 12.2 °F -3.7 °F 5.0 °F 73% 29.83 in 10.0 mi NW 15.0 mph - N/A   Mostly Cloudy
10:55 AM 12.2 °F -3.1 °F 5.0 °F 73% 29.84 in 10.0 mi NNW 13.8 mph - N/A   Partly Cloudy
11:15 AM 14.0 °F -0.2 °F 5.0 °F 67% 29.84 in 10.0 mi NNW 12.7 mph - N/A   Scattered Clouds
11:35 AM 14.0 °F -0.2 °F 5.0 °F 67% 29.84 in 10.0 mi NNW 12.7 mph - N/A   Partly Cloudy
11:55 AM 14.0 °F -1.4 °F 5.0 °F 67% 29.83 in 10.0 mi NNW 15.0 mph - N/A   Clear
12:15 PM 15.8 °F 1.4 °F 5.0 °F 62% 29.83 in 10.0 mi NNW 13.8 mph - N/A   Clear
12:35 PM 15.8 °F 1.4 °F 5.0 °F 62% 29.83 in 10.0 mi NNW 13.8 mph - N/A   Clear
12:55 PM 15.8 °F 3.4 °F 5.0 °F 62% 29.83 in 10.0 mi West 10.4 mph - N/A   Clear
1:15 PM 15.8 °F 2.1 °F 6.8 °F 68% 29.83 in 10.0 mi West 12.7 mph - N/A   Clear
1:35 PM 15.8 °F 3.4 °F 6.8 °F 68% 29.84 in 10.0 mi WNW 10.4 mph - N/A   Clear
1:55 PM 15.8 °F 0.9 °F 6.8 °F 68% 29.84 in 10.0 mi WNW 15.0 mph - N/A   Clear
2:15 PM 15.8 °F 0.9 °F 6.8 °F 68% 29.84 in 10.0 mi WNW 15.0 mph - N/A   Clear
2:35 PM 15.8 °F 0.3 °F 6.8 °F 68% 29.85 in 10.0 mi WNW 16.1 mph - N/A   Clear
2:55 PM 15.8 °F 2.1 °F 6.8 °F 68% 29.86 in 10.0 mi WNW 12.7 mph - N/A   Clear
3:15 PM 15.8 °F 1.4 °F 6.8 °F 68% 29.87 in 10.0 mi WNW 13.8 mph - N/A   Clear
3:35 PM 15.8 °F 0.3 °F 6.8 °F 68% 29.87 in 10.0 mi WNW 16.1 mph - N/A   Clear
3:55 PM 15.8 °F 0.9 °F 6.8 °F 68% 29.88 in 10.0 mi WNW 15.0 mph 20.7 mph N/A   Clear
4:15 PM 14.0 °F -2.0 °F 6.8 °F 73% 29.89 in 10.0 mi WNW 16.1 mph - N/A   Clear
4:35 PM 14.0 °F -0.8 °F 5.0 °F 67% 29.90 in 10.0 mi WNW 13.8 mph - N/A   Clear
4:55 PM 14.0 °F -2.0 °F 5.0 °F 67% 29.91 in 10.0 mi NW 16.1 mph - N/A   Clear
5:15 PM 14.0 °F -2.0 °F 5.0 °F 67% 29.92 in 10.0 mi WNW 16.1 mph 23.0 mph N/A   Clear
5:35 PM 12.2 °F -3.1 °F 5.0 °F 73% 29.93 in 10.0 mi WNW 13.8 mph 20.7 mph N/A   Clear
5:55 PM 12.2 °F -1.8 °F 5.0 °F 73% 29.94 in 10.0 mi WNW 11.5 mph - N/A   Clear
6:15 PM 10.4 °F -4.1 °F 3.2 °F 73% 29.95 in 10.0 mi WNW 11.5 mph - N/A   Clear
6:35 PM 10.4 °F -5.4 °F 3.2 °F 73% 29.96 in 10.0 mi NW 13.8 mph - N/A   Clear
6:55 PM 10.4 °F -6.6 °F 3.2 °F 73% 29.97 in 10.0 mi NW 16.1 mph - N/A   Clear
7:15 PM 10.4 °F -5.4 °F 3.2 °F 73% 29.97 in 10.0 mi NW 13.8 mph - N/A   Clear
7:40 PM 8.6 °F -5.5 °F 3.2 °F 79% 29.97 in 10.0 mi NW 10.4 mph - N/A   Clear
7:55 PM 8.6 °F -2.6 °F 1.4 °F 73% 29.97 in 10.0 mi NW 6.9 mph - N/A   Clear
8:15 PM 8.6 °F -5.5 °F 1.4 °F 73% 29.98 in 10.0 mi NW 10.4 mph - N/A   Clear
8:35 PM 8.6 °F -4.7 °F 1.4 °F 73% 29.98 in 10.0 mi NW 9.2 mph - N/A   Clear
8:55 PM 8.6 °F -3.7 °F 1.4 °F 73% 29.99 in 10.0 mi WNW 8.1 mph - N/A   Clear
9:15 PM 6.8 °F -4.8 °F -0.4 °F 72% 30.00 in 10.0 mi WNW 6.9 mph - N/A   Clear
9:35 PM 6.8 °F -5.9 °F -0.4 °F 72% 30.01 in 10.0 mi WNW 8.1 mph - N/A   Clear
9:55 PM 6.8 °F -4.8 °F -0.4 °F 72% 30.01 in 10.0 mi WNW 6.9 mph - N/A   Clear
10:15 PM 5.0 °F -6.9 °F -0.4 °F 78% 30.02 in 10.0 mi WNW 6.9 mph - N/A   Clear
10:35 PM 5.0 °F -5.6 °F -2.2 °F 72% 30.01 in 10.0 mi NW 5.8 mph - N/A   Clear
10:55 PM 3.2 °F -4.2 °F -2.2 °F 78% 30.01 in 10.0 mi NNW 3.5 mph - N/A   Clear
11:15 PM -0.4 °F -10.4 °F -5.8 °F 78% 30.02 in 10.0 mi West 4.6 mph - N/A   Clear
11:35 PM -0.4 °F -10.4 °F -5.8 °F 78% 30.04 in 10.0 mi West 4.6 mph - N/A   Clear
11:55 PM -0.4 °F - -5.8 °F 78% 30.05 in 10.0 mi Calm Calm - N/A   Clear